Location: Caledonia
(42.3690°N, 88.8930°W)
Time: 23:38:00
(UTC-05:00)

Hubble Space Telescope - Visible Passes

Search period start: 21 April 2018 00:00
Search period end: 01 May 2018 00:00
Orbit: 537 x 541 km, 28.5° (Epoch: 21 April)

Date Brightness Start Highest point End Pass type
(mag) Time Alt. Az. Time Alt. Az. Time Alt. Az.
28 Apr 3.2 21:36:50 10° SSW 21:37:04 10° SSW 21:37:04 10° SSW visible
29 Apr 3.0 21:26:23 10° SSW 21:27:28 12° S 21:27:28 12° S visible
30 Apr 3.0 21:16:03 10° SSW 21:17:25 11° S 21:17:47 11° S visible
